Regional Weather Roundup
Issued by NWS

Home | Current Version | Previous Version | Graphics & Text | Print | Product List | Glossary On
Versions: 1 2 3 4 5 6 7 8 9 10 11 12 13 14 15 16 17 18 19 20 21 22 23 24 25 26 27 28 29 30 31 32 33 34 35 36 37 38 39 40 41 42 43 44 45 46 47 48 49 50
000
ASUS45 KABQ 261410
RWRNM
NEW MEXICO REGIONAL WEATHER ROUNDUP
NATIONAL WEATHER SERVICE ALBUQUERQUE NM
800 AM MDT TUE JUL 26 2016

NOTE: "FAIR" MEANS FEW OR NO CLOUDS BELOW 12,000 FEET AGL WITH NO
       SIGNIFICANT WEATHER OR OBSTRUCTIONS TO VISION.

      THIS PRODUCT IS RELEASED AS TWO VERSIONS.  ONE VERSION NEAR
      THE TOP OF THE HOUR CONTAINING PRELIMINARY DATA FROM ALBUQUERQUE
      AND OTHER STATIONS.  A FINAL VERSION WITH ADDITIONAL DATA IS
      ISSUED ABOUT 10 MINUTES AFTER THE HOUR.

NMZ501-503-504-510>518-261500-
NORTHWEST PLATEAU/NORTHCENTRAL MOUNTAINS

CITY           SKY/WX    TMP DP  RH WIND       PRES   REMARKS
FARMINGTON     FAIR      72  54  53 E8        30.25R
LOS ALAMOS     FAIR      64  53  67 CALM      30.41R
SANTA FE       FAIR      67  56  67 S3        30.34R
TAOS           FAIR      63  43  48 CALM      30.41S
ANGEL FIRE     CLOUDY    47  47  97 CALM      30.49S FOG

$$
NMZ402-403-502-505>509-261500-
WESTCENTRAL MOUNTAINS/SOUTHWEST MOUNTAINS

CITY           SKY/WX    TMP DP  RH WIND       PRES   REMARKS
GALLUP         CLOUDY    67  54  63 CALM      30.33R
GRANTS         FAIR      66  55  69 CALM      30.36R
SILVER CITY    FAIR      74  53  47 CALM      30.25R

$$
NMZ407-409-411-412-261500-
SOUTHERN DESERTS

CITY           SKY/WX    TMP DP  RH WIND       PRES   REMARKS
LORDSBURG      FAIR      75  59  57 S9G17     30.16R
DEMING         FAIR      77  59  53 NE14      30.16S
LAS CRUCES     FAIR      78  55  45 N5        30.19R
HOLLOMAN AFB   LGT RAIN  72  61  68 N9        30.18R
ALAMOGORDO     FAIR      72  59  64 NW7       30.20R
T OR C         CLOUDY    72  61  68 NE7       30.23R

$$
NMZ519>523-261500-
CENTRAL VALLEYS/CENTRAL HIGHLANDS

CITY           SKY/WX    TMP DP  RH WIND       PRES   REMARKS
ALBUQUERQUE    PTSUNNY   71  59  65 N6        30.28S
DOUBLE EAGLE   PTSUNNY   66  59  77 CALM      30.31S
MORIARTY ARPT  FAIR      64  57  78 CALM      30.34S
CLINES CORNERS PTSUNNY   62  57  83 W6        30.38S
BELEN          FAIR      71  56  57 S5        30.27S
SOCORRO        PTSUNNY   73  57  57 CALM      30.25S

$$
NMZ524>526-539-540-261500-
SOUTHCENTRAL MOUNTAINS

CITY           SKY/WX    TMP DP  RH WIND       PRES   REMARKS
RUIDOSO          N/A     59  57  94 S5        30.38S

$$
NMZ527>531-261500-
NORTHEAST HIGHLANDS/NORTHEAST PLAINS

CITY           SKY/WX    TMP DP  RH WIND       PRES   REMARKS
LAS VEGAS      FAIR      64  54  69 S9        30.36R
RATON          FAIR      55  53  93 NE5       30.31R
CLAYTON        FAIR      73  62  68 CALM      30.22R

$$
NMZ532>537-261500-
EASTCENTRAL PLAINS

CITY           SKY/WX    TMP DP  RH WIND       PRES   REMARKS
TUCUMCARI      FAIR      73  64  73 SW10      30.17S
CANNON AFB     FAIR      72  63  72 NW12      30.19S
CLOVIS AIRPORT FAIR      72  57  60 N9        30.20S

$$
NMZ028-029-538-261500-
SOUTHEAST PLAINS

CITY           SKY/WX    TMP DP  RH WIND       PRES   REMARKS
ROSWELL        FAIR      70  63  78 N8        30.16R
ARTESIA        FAIR      72  64  78 NW3       30.15S
CARLSBAD       FAIR      78  61  55 NW10      30.12S
HOBBS          SUNNY     77  57  50 N8        30.15R


$$



USA.gov is the U.S. government's official web portal to all federal, state and local government web resources and services.